Flag for Australia Weather past 2 weeks in Port Hedland, Western Australia, Australia

Now
102 °F

Sunny.


Feels Like: 100 °F
Forecast: 77 / 99 °F
Wind: 15 mph from Northwest

Location: Port Hedland Pardoo

Current Time: Oct 23, 2014 at 12:31:50 PM

Latest Report: Oct 23, 2014 at 12:00 PM


Visibility: 10 mi

Pressure: 29.80 "Hg

Humidity: 20%

Dew point: 54 °F

Location of Port HedlandLocation

Historic Weather in Port Hedland — Graph

°F

Port Hedland temperature yesterday

Maximum temperature yesterday: 108 °F (at 12:30 PM)
Minimum temperature yesterday: 68 °F (at 5:30 AM)
Average temperature yesterday: 88 °F

Past Weeks' High & Low Weather Summary

 TemperatureHumidityPressure
High109 °F (Oct 9, 12:30 PM)100% (Oct 14, 10:30 PM)30.01 "Hg (Oct 14, 10:30 PM)
Low64 °F (Oct 11, 4:00 AM)4% (Oct 9, 9:30 AM)29.74 "Hg (Oct 12, 3:30 PM)
Average83 °F52%29.87 "Hg
* Reported Oct 8 11:00 AM — Oct 23 11:00 AM, Port Hedland, Weather by CustomWeather, © 2014

Note: Actual official high and low records may vary slightly from our data, if they occured in-between our weather recording intervals... More about our weather records

Advertising

Port Hedland weather history for previous 24 hours

 ConditionsComfort  
Time TempWeatherWind HumidityBarometerVisibility
11:00 AM
Oct 23
106 °FSunny.9 mph8%29.83 "Hg10 mi
10:30 AM104 °FSunny.9 mph8%29.86 "Hg10 mi
10:00 AM104 °FSunny.10 mph9%29.86 "Hg10 mi
9:30 AM100 °FSunny.10 mph11%29.86 "Hg10 mi
9:00 AM99 °FExtremely hot.10 mph12%29.86 "HgN/A
8:30 AM95 °FSunny.10 mph13%29.86 "Hg10 mi
8:00 AM90 °FSunny.8 mph18%29.86 "Hg10 mi
7:30 AM86 °FSunny.8 mph20%29.86 "Hg10 mi
7:00 AM82 °FSunny.8 mph26%29.86 "Hg10 mi
6:30 AM79 °FSunny.6 mph32%29.83 "Hg10 mi
6:00 AM73 °FSunny.8 mph38%29.83 "Hg10 mi
5:30 AM73 °FSunny.5 mph41%29.83 "HgN/A
5:00 AM75 °FSunny.5 mph39%29.83 "HgN/A
4:30 AM75 °FSunny.5 mph41%29.80 "HgN/A
4:00 AM77 °FClear.5 mph39%29.80 "HgN/A
3:30 AM77 °FClear.7 mph39%29.80 "HgN/A
3:00 AM79 °FClear.1 mph37%29.80 "HgN/A
2:30 AM81 °FClear.6 mph32%29.80 "HgN/A
2:00 AM77 °FClear.7 mph42%29.80 "HgN/A
1:30 AM82 °FClear.9 mph35%29.80 "HgN/A
1:00 AM86 °FClear.13 mph29%29.80 "HgN/A
12:30 AM86 °FClear.15 mph31%29.80 "HgN/A
12:00 AM86 °FClear.15 mph35%29.80 "HgN/A
11:30 PM
Oct 22
86 °FClear.14 mph40%29.83 "HgN/A
11:00 PM82 °FClear.13 mph55%29.83 "HgN/A
10:30 PM81 °FClear.12 mph62%29.86 "HgN/A
10:00 PM81 °FClear.10 mph66%29.86 "HgN/A
9:30 PM82 °FClear.9 mph62%29.86 "HgN/A
9:00 PM82 °FClear.12 mph62%29.86 "HgN/A
8:30 PM82 °FClear.13 mph62%29.86 "HgN/A
8:00 PM82 °FClear.13 mph62%29.86 "HgN/A
7:30 PM82 °FClear.10 mph62%29.83 "HgN/A
7:00 PM84 °FClear.12 mph58%29.83 "HgN/A
6:30 PM86 °FClear.10 mph55%29.83 "HgN/A
6:00 PM88 °FClear.15 mph49%29.80 "HgN/A
5:30 PM90 °FClear.16 mph41%29.80 "HgN/A
5:00 PM91 °FSunny.18 mph36%29.80 "HgN/A
4:30 PM95 °FSunny.15 mph32%29.80 "HgN/A
4:00 PM97 °FSunny.18 mph25%29.80 "HgN/A
3:00 PM99 °FSunny.16 mph29%29.80 "Hg10 mi
2:30 PM100 °FSunny.16 mph24%29.80 "Hg10 mi
2:00 PM102 °FSunny.17 mph18%29.80 "Hg10 mi
1:30 PM104 °FPassing clouds.16 mph20%29.83 "HgN/A
1:00 PM106 °FSunny.16 mph12%29.83 "Hg10 mi
12:30 PM108 °FSunny.10 mph5%29.83 "Hg10 mi
12:00 PM106 °FSunny.8 mph8%29.86 "Hg10 mi
Weather by CustomWeather, © 2014

See weather overviewHow to use our weather pages